STARLINK-32079, 60336

Orbit data source: Space-Track

STARLINK-32079, 60336 is a payload satellite owned by SpaceX/Seattle (US) in LEO that was launched on Fri, 02 Aug 2024 UTC via an FALCON 9 launch vehicle from the Air Force Eastern Test Range (AFETR). Payloads include a variety of satellites, spacecraft, and rockets equipped with specific instruments for various scientific and technological missions. These include communications satellites like Starlink; space stations such as the ISS; scientific satellites like the Hubble; Earth observation satellites from companies like Planet Labs, Umbra, and HawkEye 360; GPS; miniature CubeSats for education and research; and military/defense satellites.

Loading next visibility...
STARLINK-32079 details
Identifier
60336, 2024-136H
Orbit
LEO
Last TLE update23 hours ago
Origin
Flag of USSpaceX/Seattle (US)
ManufacturerSpaceX/Seattle
MissionOperational spacecraft
Bus & MotorSTARLINK V2M, Unknown motor
Mass730 kg wet, ~700 kg dry
Launch date (UTC)
2024-08-02 (5 months ago)
Launch vehicle
FALCON 9
Launch site
Air Force Eastern Test Range (AFETR)
Object type
Payload
Rocket body
Debris
Shape & HBRUnknown
Radar Cross SectionLarge (>1 m²)

Expand to show TLE details & history

TLE from 23 hours ago
0 STARLINK-32079
1 60336U 24136H   24356.27083087  .00003115  00000-0  11728-3 0  9991
2 60336  53.1630 335.4095 0001339 100.9847 259.1304 15.30188012 21772
Epoch: 2024-12-21T06:29Z
Definitive object data (Epoch: 2024-12-21T06:29:59.787Z)
Latitude-0.00004°
Longitude147.58597°
Altitude476.324 km
Speed7.629 km/s
True Right ascension22h 21m 38s
True Declination0° 00' 00"
Sunlit
Object was in daylight at TLE epoch
Visualization TLE readout
Latitude-21.60179°
Longitude125.901°
Altitude481.921 km
Speed7.624 km/s
Apparent Right ascension19h 13m 40s
Apparent Declination-33° 47' 01"
Sunlit
Object is in daylight
Visualization observer readout
Local Sidereal Time04:58:20
Azimuth272.045° WNW
Elevation-62.416°
Doppler factor1
Orbital elements
Apogee altitude476.425 km
Perigee altitude474.589 km
Semi-major axis6,853.644 km
Eccentricity0.0001339
Inclination53.163°
RAAN335.4095°
Arg. of periapsis100.9847°
True anomaly259.11533°
Mean anomaly259.1304°
Eccentric anomaly259.12287°
Mean motion3.82526 °/min
BSTAR0.00011728
Orbital period94.11 mins
Loading maneuver chart data...
Loading historical data...
Loading historical data...
Loading historical data...
Loading historical data...
Loading historical data...
Loading historical data...
Loading historical data...

STARLINK-32079 Visibility forecast

Observer location: undefined°, undefined

Span
Click to sort rows by Start time (UTC) header in descending order
Start Az.
Max El. time (UTC)
Max El. Az.
Max El.
End time (UTC)
End Az.
4 mins2024-12-22 06:26:40.644Z341.019° N2024-12-22 06:28:40.644Z14.945° NNE15.317°2024-12-22 06:30:40.644Z51.555° ENE
5 mins2024-12-22 08:05:40.644Z323.051° NNW2024-12-22 08:07:40.644Z71.668° E41.563°2024-12-22 08:10:40.644Z120.732° SE
5 mins2024-12-23 01:00:40.644Z215.876° SW2024-12-23 01:02:40.644Z156.945° SSE42.636°2024-12-23 01:05:40.644Z56.253° ENE
4 mins2024-12-23 02:39:40.644Z304.876° NW2024-12-23 02:40:40.644Z326.419° NNW19.512°2024-12-23 02:43:40.644Z24.226° NE
|